Location: Broletto
(44.6000°N, 10.5833°E)
Time: 06:26:38
(UTC+00:00)

S3M - Pass Details

Date: 18 April 2021
Orbit: 949 x 1004 km, 83.0° (Epoch: 06 May)

Event Time Altitude Azimuth Distance (km) Brightness Sun altitude
Exits shadow 22:08:54 67° 30° (NNE) 1,084 4.2 -32.2°
Drops below altitude 10° 22:14:26 10° 10° (N) 2,788 7.1 -32.5°
Sets 22:16:59 0° 10° (N) 3,741 7.9 -32.6°
